sat.trackr.live / text

‹ back to catalog

STARLINK-36063

NORAD 66606 · 2025-270U

PAYLOAD ACTIVE UNKNOWN

§ Identity

Operator
Country
US
Launch date
2025-11-22
Launch site
AFETR
Launch vehicle
Mass (kg)
RCS (m²)

Purposes: comms

External: N2YO · Heavens-Above · Gunter

§ Orbital elements

Epoch: 2026-09-20T09:10:35.899680Z

Period
94.27 min
Inclination
43.0024°
Eccentricity
0.0000698
Mean motion
15.27587871 rev/d
Perigee alt
482.5 km
Apogee alt
483.5 km
Semi-major
6,861.2 km
B*
4.6350e-4
RAAN
36.4753°
Arg perigee
213.6374°
Mean anomaly
146.4433°
Rev number
4,748

§ Raw data

STARLINK-360631 66606U 25270U   26263.38235995  .00012517  00000+0  46350-3 0  99992 66606  43.0024  36.4753 0000698 213.6374 146.4433 15.27587871 47485

JSON: /api/v1/satellites/66606 · /tle

For live sub-satellite position, see the globe view (requires WebGL).

§ Visibility from observer

Set your observer location to see the next 7 days of passes ≥ 10°. The values pass through the URL so the page stays shareable.

No JS? Fill the form by hand. The geolocation button needs JavaScript.